EW3204 Weather Reports


Display with metric or nautical units.
time (UTC)temp
F
wind
direction
speed
MPH
gust
MPH
rain 1hr
in
rain 24hr
in
rain mn
in
humidity
%
barometer
mb
20260510093012 77 227 6.0 0.0 0.00 0.00 0.00 4 1004.9
20260510091508 78 217 5.0 0.0 0.00 0.00 0.00 4 1004.8
20260510090004 78 236 4.0 0.0 0.00 0.00 0.00 4 1004.9
20260510084615 77 227 3.0 0.0 0.00 0.00 0.00 5 1005.0
20260510083055 78 256 3.0 0.0 0.00 0.00 0.00 8 1005.1
20260510081554 78 222 5.0 0.0 0.00 0.00 0.00 5 1005.1
20260510080059 77 284 3.0 0.0 0.00 0.00 0.00 8 1005.2
20260510074550 77 151 2.0 0.0 0.00 0.00 0.00 8 1005.3
20260510073050 77 151 1.0 0.0 0.00 0.00 0.00 11 1005.3
20260510071545 77 151 1.0 0.0 0.00 0.00 0.00 11 1005.3
20260510070046 80 151 3.0 0.0 0.00 0.00 0.00 11 1005.1
20260510064537 81 151 1.0 0.0 0.00 0.00 0.00 7 1005.1
20260510063034 82 151 2.0 0.0 0.00 0.00 0.00 8 1005.1
20260510061523 81 151 3.0 0.0 0.00 0.00 0.00 11 1005.0
20260510060033 82 128 3.0 0.0 0.00 0.00 0.00 11 1005.0
20260510054518 83 113 2.0 0.0 0.00 0.00 0.00 9 1004.9
20260510053010 83 162 3.0 0.0 0.00 0.00 0.00 9 1005.1
20260510051507 84 167 1.0 0.0 0.00 0.00 0.00 10 1005.1
20260510050001 84 152 2.0 0.0 0.00 0.00 0.00 10 1005.0
20260510044558 84 59 2.0 0.0 0.00 0.00 0.00 10 1005.0
20260510043053 85 127 2.0 0.0 0.00 0.00 0.00 10 1004.8
20260510041551 87 184 4.0 0.0 0.00 0.00 0.00 7 1004.7
20260510040045 87 288 6.0 0.0 0.00 0.00 0.00 7 1004.5
20260510034539 87 289 5.0 0.0 0.00 0.00 0.00 8 1004.3
20260510033045 87 271 2.0 0.0 0.00 0.00 0.00 9 1004.2
20260510031532 88 297 6.0 0.0 0.00 0.00 0.00 9 1003.9
20260510030026 89 299 7.0 0.0 0.00 0.00 0.00 10 1003.7
20260510024523 90 281 9.0 0.0 0.00 0.00 0.00 10 1003.5
20260510023018 91 277 9.0 0.0 0.00 0.00 0.00 8 1003.3
20260510021531 93 312 9.0 0.0 0.00 0.00 0.00 7 1003.2
20260510020009 95 285 7.0 0.0 0.00 0.00 0.00 7 1002.9
20260510014510 96 237 8.0 0.0 0.00 0.00 0.00 6 1002.9
20260510013123 96 211 9.0 0.0 0.00 0.00 0.00 7 1002.7
20260510011557 97 223 11.0 0.0 0.00 0.00 0.00 7 1002.7
20260510010058 98 221 9.0 0.0 0.00 0.00 0.00 7 1002.7
20260510004548 99 242 9.0 0.0 0.00 0.00 0.00 7 1002.5
20260510003043 99 240 9.0 0.0 0.00 0.00 0.00 7 1002.6
20260510001538 99 269 9.0 0.0 0.00 0.00 0.00 8 1002.6
20260510000033 100 267 9.0 0.0 0.00 0.00 0.00 9 1002.6
20260509234530 100 292 10.0 0.0 0.00 0.00 0.00 9 1002.4
20260509233031 101 310 6.0 0.0 0.00 0.00 0.00 8 1002.5
20260509231520 101 249 4.0 0.0 0.00 0.00 0.00 8 1002.6
20260509230024 100 194 6.0 0.0 0.00 0.00 0.00 8 1002.6
20260509224512 100 178 5.0 0.0 0.00 0.00 0.00 8 1002.8
20260509223008 100 135 5.0 0.0 0.00 0.00 0.00 7 1003.1
20260509221504 100 117 7.0 0.0 0.00 0.00 0.00 7 1003.4
20260509220059 101 104 6.0 0.0 0.00 0.00 0.00 5 1003.5
20260509214555 101 90 6.0 0.0 0.00 0.00 0.00 4 1003.8
20260509213105 100 89 4.0 0.0 0.00 0.00 0.00 5 1004.0
20260509211549 99 69 6.0 0.0 0.00 0.00 0.00 4 1004.3
20260509210046 99 111 5.0 0.0 0.00 0.00 0.00 4 1004.5
20260509204538 100 28 4.0 0.0 0.00 0.00 0.00 4 1004.7
20260509203034 99 309 2.0 0.0 0.00 0.00 0.00 4 1005.0
20260509201528 98 57 4.0 0.0 0.00 0.00 0.00 3 1005.2
20260509200023 98 68 4.0 0.0 0.00 0.00 0.00 3 1005.4
20260509194531 98 36 4.0 0.0 0.00 0.00 0.00 3 1005.4
20260509193022 97 352 4.0 0.0 0.00 0.00 0.00 3 1005.7
20260509191510 97 68 5.0 0.0 0.00 0.00 0.00 3 1005.9
20260509190007 96 104 4.0 0.0 0.00 0.00 0.00 3 1006.0
20260509184502 95 131 3.0 0.0 0.00 0.00 0.00 4 1006.2
20260509183100 94 121 4.0 0.0 0.00 0.00 0.00 4 1006.4
20260509181601 94 116 4.0 0.0 0.00 0.00 0.00 4 1006.5
20260509180058 93 89 2.0 0.0 0.00 0.00 0.00 3 1006.7
20260509174547 93 71 5.0 0.0 0.00 0.00 0.00 3 1006.8
20260509173053 92 147 3.0 0.0 0.00 0.00 0.00 3 1006.7
20260509171539 92 92 2.0 0.0 0.00 0.00 0.00 3 1006.8
20260509170031 91 92 3.0 0.0 0.00 0.00 0.00 4 1006.7
20260509164527 91 46 3.0 0.0 0.00 0.00 0.00 5 1006.7
20260509163022 90 103 3.0 0.0 0.00 0.00 0.00 5 1006.8
20260509161517 89 42 2.0 0.0 0.00 0.00 0.00 5 1006.7
20260509160014 89 99 1.0 0.0 0.00 0.00 0.00 3 1006.7
20260509154509 89 304 1.0 0.0 0.00 0.00 0.00 3 1006.6
20260509153013 87 304 1.0 0.0 0.00 0.00 0.00 3 1006.7
20260509151600 85 304 0.0 0.0 0.00 0.00 0.00 4 1006.7
20260509150108 83 304 0.0 0.0 0.00 0.00 0.00 4 1006.7
20260509144553 81 304 1.0 0.0 0.00 0.00 0.00 5 1006.7
20260509143048 80 279 3.0 0.0 0.00 0.00 0.00 5 1006.6
20260509141545 78 202 4.0 0.0 0.00 0.00 0.00 4 1006.4
20260509140054 76 205 5.0 0.0 0.00 0.00 0.00 5 1006.3
20260509134535 75 194 5.0 0.0 0.00 0.00 0.00 5 1006.1
20260509133030 75 191 7.0 0.0 0.00 0.00 0.00 4 1005.9
20260509131526 74 204 6.0 0.0 0.00 0.00 0.00 5 1005.8
20260509130022 74 200 7.0 0.0 0.00 0.00 0.00 5 1005.7
20260509124518 73 210 7.0 0.0 0.00 0.00 0.00 5 1005.6
20260509123012 73 220 6.0 0.0 0.00 0.00 0.00 5 1005.4
20260509121508 75 216 5.0 0.0 0.00 0.00 0.00 5 1005.4
20260509120004 75 215 5.0 0.0 0.00 0.00 0.00 5 1005.3
20260509114501 75 204 5.0 0.0 0.00 0.00 0.00 6 1005.3
20260509113059 76 207 4.0 0.0 0.00 0.00 0.00 5 1005.2
20260509111559 79 207 3.0 0.0 0.00 0.00 0.00 6 1005.3
20260509110057 80 167 5.0 0.0 0.00 0.00 0.00 7 1005.4
20260509104603 75 189 3.0 0.0 0.00 0.00 0.00 6 1005.3
20260509103105 76 279 3.0 0.0 0.00 0.00 0.00 6 1005.4
20260509101559 77 214 5.0 0.0 0.00 0.00 0.00 5 1005.3
20260509100051 77 214 2.0 0.0 0.00 0.00 0.00 7 1005.4
20260509094557 78 223 2.0 0.0 0.00 0.00 0.00 5 1005.4